#timestamp,LO_Frequency,Hit,StdDev 
1684699215.8,286046999.9,N
1684699235.6,286046999.8,N
1684699255.5,286046999.8,N
1684699275.3,286047001.0,N
1684699295.1,286047000.4,N
1684699315.9,286047000.0,N
1684699335.7,286047000.2,N
1684699355.6,286047002.8,N
1684699375.4,286047001.6,N
1684699395.2,286047002.3,N
1684699415.1,286047001.8,N
1684699416.0,286047001.8,N
1684699435.8,286047002.7,N
1684699455.6,286047002.6,N
1684699475.5,286047002.0,N
1684699495.3,286047001.6,N
1684699515.2,286047002.1,N
1684699535.9,286047000.1,N
1684699555.7,286046999.8,N
1684699575.6,286047002.3,N
1684699595.4,286047000.2,N
1684699615.2,286047000.0,N
1684699635.1,286047002.6,N
1684699636.0,286047002.6,N
1684699655.8,286047001.6,N
1684699675.7,286047002.6,N
1684699695.5,286047002.0,N
1684699715.3,286047002.0,N
1684699735.2,286047002.8,N
1684699755.0,286047002.5,N
1684699755.9,286047002.5,N
1684699775.8,286047002.8,N
1684699795.6,286046999.7,N
1684699815.4,286047002.7,N
1684699835.3,286047001.5,N
1684699855.1,286047001.9,N
1684699875.8,286047001.6,N
1684699895.7,286047002.6,N
1684699915.5,286047001.8,N
1684699935.4,286047001.5,N
1684699955.2,286047002.5,N
1684699975.0,286047002.8,N
1684699975.9,286047002.8,N
1684699995.8,286047001.5,N
1684700015.6,286047001.9,N
1684700035.4,286047001.4,N
1684700055.3,286047001.5,N
1684700075.1,286047002.0,N
1684700095.9,286047002.3,N
1684700115.7,286047003.8,Y
1684700135.5,286047002.8,P
1684700155.4,286047000.3,N
1684700175.2,286047000.8,N
1684700195.0,286047000.2,N
1684700195.9,286047000.2,N
1684700215.8,286047000.0,N
1684700235.6,286047000.4,N
1684700255.5,286047000.4,N
1684700275.3,286047000.0,N
1684700295.1,286047001.1,N
1684700315.9,286047000.2,N
1684700335.7,286047002.7,Y
1684700355.5,286047000.3,P
1684700375.4,286047000.3,N
1684700395.2,286047000.5,N
1684700415.1,286047000.9,Y
1684700416.0,286047000.9,P
1684700435.8,286047001.0,P
1684700455.6,286047001.0,P
1684700475.5,286047001.1,Y
1684700495.3,286046999.0,P
1684700515.2,286046998.4,N
1684700535.9,286046998.3,N
1684700555.7,286046996.5,Y
1684700575.6,286047000.7,P
1684700595.4,286046998.2,N
1684700615.2,286046999.4,N
1684700635.1,286046997.4,N
1684700636.0,286046997.4,N
1684700655.8,286046997.1,N
1684700675.7,286046997.1,N
1684700695.5,286046996.7,N
1684700715.3,286046999.1,N
1684700735.2,286046999.6,N
1684700755.0,286046999.3,N
1684700755.9,286046999.3,N
1684700775.8,286046999.6,N
1684700795.6,286046999.2,N
1684700815.4,286046999.5,N
1684700835.3,286046997.1,N
1684700855.1,286046997.3,N
1684700856.0,286046997.3,N
1684700875.8,286046997.5,N
1684700895.7,286046997.4,N
1684700915.5,286046995.0,Y
1684700935.4,286046997.0,P
1684700955.2,286046999.1,N
1684700975.0,286046996.8,P
1684700975.9,286046996.8,Y
1684700995.8,286047001.2,P
1684701015.6,286046998.9,N
1684701035.4,286046999.1,N
1684701055.3,286046998.7,N
1684701075.1,286046999.3,N
1684701095.9,286046997.7,N
1684701115.7,286046994.9,Y
1684701135.5,286046999.6,P
1684701155.4,286046996.6,P
1684701175.2,286046998.9,N
1684701195.0,286046996.8,N
1684701195.9,286046996.8,N
1684701215.8,286046996.7,N
1684701235.6,286046997.2,N
1684701255.5,286046999.1,N
1684701275.3,286046996.6,N
1684701295.1,286046999.1,N
1684701315.9,286046999.5,N
1684701335.7,286046997.7,N
1684701355.5,286046997.4,N
1684701375.4,286046996.7,N
1684701395.2,286046996.5,Y
1684701415.1,286047001.2,P
1684701416.0,286047001.2,N
1684701435.8,286046998.2,N
1684701455.6,286046998.9,N
1684701475.5,286046999.1,N
1684701495.3,286046999.4,N
1684701515.2,286046999.3,N
1684701535.9,286046998.9,N
1684701555.7,286046998.6,N
1684701575.6,286046998.7,N
1684701595.4,286046999.5,N
1684701615.3,286046996.9,Y
1684701635.1,286046999.3,P
1684701636.0,286046999.3,P
1684701655.8,286046996.5,P
1684701675.7,286046999.1,N
1684701695.5,286046998.8,N
1684701715.3,286046998.9,N
1684701735.2,286046998.4,N
1684701755.0,286046999.2,N
1684701755.9,286046999.2,N
1684701775.8,286046996.8,Y
1684701795.6,286046998.3,P
1684701815.4,286046998.9,P
1684701835.3,286046998.6,P
1684701855.1,286046998.3,Y
1684701875.8,286047002.4,P
1684701895.7,286046999.9,N
1684701915.5,286046999.7,N
1684701935.4,286046999.8,N
1684701955.2,286047000.1,N
1684701975.0,286047000.9,N
1684701975.9,286047000.9,N
1684701995.8,286047001.0,N
1684702015.6,286047000.4,N
1684702035.4,286047000.8,N
1684702055.3,286047001.0,N
1684702075.1,286047001.0,N
1684702095.9,286047001.0,N
1684702115.7,286047000.8,N
1684702135.5,286047000.9,N
1684702155.4,286046998.5,N
1684702175.2,286046999.1,N
1684702195.0,286046998.7,N
1684702196.0,286046998.7,N
1684702215.8,286046998.7,N
1684702235.6,286046999.3,N
1684702255.5,286046998.7,N
1684702275.3,286046998.9,N
1684702295.1,286046999.4,N
1684702315.9,286046998.9,N
1684702335.7,286046998.3,N
1684702355.5,286046998.8,N
1684702375.4,286046999.4,N
1684702395.2,286046999.2,N
1684702415.1,286046998.8,N
1684702416.0,286046998.8,N
1684702435.8,286046999.4,N
1684702455.6,286046996.5,Y
1684702475.5,286046999.6,P
1684702495.3,286046998.9,P
1684702515.1,286046998.8,P
1684702535.9,286047000.7,N
1684702555.7,286047000.8,N
1684702575.6,286046998.4,N
1684702595.4,286046998.6,N
1684702615.2,286046998.5,N
1684702635.1,286047001.2,N
1684702636.0,286047001.2,N
1684702655.8,286046998.2,N
1684702675.6,286046998.2,N
1684702695.5,286046998.9,N
1684702715.3,286046999.4,N
1684702735.2,286046999.4,N
1684702755.9,286046999.1,N
1684702775.7,286046999.2,N
1684702795.6,286046999.5,N
